Погода в Алексеевке

Россия / Белгородская область     50°51′50″N   36°12′38″E
темп.,
°C
ветер,
м/с
пор.,
м/с
влажн.,
%
обл.,
%
осадки,
мм/ч
давл.,
гПа
погр.,
м
19 апреля, пн
пн1900:00+5всв3493100 1.8 1017302
03:00+5св339399 1.9 1017234
06:00+5с2393100 0.1 1016177
09:00+6ссв2287100 0.1 1017310
12:00+10зсз226599 0.1 10161050
15:00+11зсз2257100 0.1 10151335
18:00+10сз336146 0.0 1014584
21:00+7ссв22765 0.0 101512
20 апреля, вт
вт2000:00+6св11779 0.0 101411
03:00+5св228833 0.0 101416
06:00+5всв3592100 0.0 101190
09:00+10в5876100 0.0 1010472
12:00+12в7871100 0.5 10081049
15:00+10всв81286100 2.7 1004980
18:00+8ссв101592100 8.6 10001137
21:00+6с81392100 10.3 999629
21 апреля, ср
ср2100:00+5сз6893100 3.1 1000572
03:00+5зсз51195100 3.3 1002895
06:00+6з61093100 0.1 1006943
09:00+6з6982100 0.1 10091015
12:00+9з6870100 0.0 10111119
15:00+10зюз686699 0.3 10121270
18:00+9з477293 0.3 1014896
21:00+6юз228342 0.3 101625
22 апреля, чт
чт2200:00+5ююз3485100 0.0 101763
03:00+5ю368737 0.0 1017110
06:00+5ю3108667 0.0 1018206
09:00+10ююз587253 0.0 1019525
12:00+14юз685657 0.5 10191446
15:00+15юз7853100 1.4 10181623
18:00+13ююз3766100 1.0 1019252
21:00+10ююв4978100 1.6 1019168
23 апреля, пт
пт2300:00+9ю498545 0.1 1019205
03:00+7ю38915 0.1 1019152
06:00+7ю4109354 0.0 1019207
09:00+12ю610685 0.1 1018601
12:00+15ююз89524 0.0 10171590
15:00+16ююз8104862 0.5 10152378
18:00+14ююз61257100 0.1 1014628
21:00+9з51293100 4.4 1015636